Wetbulb
53.03 51.95 54.28 54.23 45.01 41.83 38.90 41.65 46.10 45.44 45.64 48.31 47.35 45.55 44.47 45.83 45.15 42.48 49.38 49.92 50.42 52.59 57.26 56.25 61.32 65.18 67.84 69.67 71.27 72.28 72.24 72.92 73.19 72.89 72.67 72.73 72.89 72.80 72.55 72.96 73.43 73.07 72.91 73.33 73.09 72.92 72.89 72.61 71.69
50.93 51.93 53.18 49.84 38.40 35.75 37.42 42.30 43.11 43.73 44.03 44.32 45.36 44.76 43.75 44.16 50.21 48.76 46.55 49.51 49.94 50.24 54.30 54.92 60.07 61.38 64.49 66.36 68.69 70.88 71.95 72.10 72.84 73.43 73.39 73.37 73.42 73.35 72.91 73.14 73.34 73.23 72.86 73.08 72.95 72.71 72.25 72.17 71.62
51.09 51.81 46.44 41.90 38.43 33.73 35.32 39.80 42.04 43.67 43.46 42.55 40.73 43.32 41.90 44.12 45.30 45.33 47.08 49.03 49.84 48.96 50.46 55.14 58.20 58.11 60.28 62.86 64.88 68.35 70.67 71.58 71.80 72.68 73.32 73.74 73.69 73.42 73.30 73.00 72.95 73.20 72.90 72.59 72.56 72.10 71.40 71.60 71.17
47.32 47.52 43.23 35.73 36.30 39.72 38.57 39.55 41.44 40.80 41.58 42.84 41.35 38.14 44.30 45.35 44.92 45.11 47.38 48.16 48.11 48.53 49.43 55.02 57.26 57.18 57.68 58.82 61.52 63.58 67.37 70.19 71.02 71.68 72.44 72.94 72.98 73.25 72.71 72.47 72.26 72.17 72.67 72.77 72.25 72.40 71.50 71.26 71.08
46.79 44.64 35.94 34.56 36.77 39.51 39.53 41.48 40.28 37.50 38.50 38.88 40.31 37.59 39.19 43.58 45.50 45.46 45.76 47.46 46.80 47.89 49.36 50.55 57.75 56.39 56.53 57.13 58.52 59.30 62.08 65.47 68.83 70.74 71.32 72.24 72.33 72.28 72.14 71.69 71.41 71.30 71.13 72.02 71.98 71.86 71.16 70.74 70.88
40.14 41.19 34.07 33.27 36.73 39.14 39.27 39.99 39.13 38.17 38.11 38.39 37.62 37.64 38.45 43.64 42.81 43.85 45.38 45.32 47.15 47.14 49.27 50.35 52.94 55.78 55.81 55.58 56.22 57.86 58.30 60.88 63.91 66.76 69.46 70.87 71.26 71.48 71.97 71.83 71.12 70.96 71.06 71.36 71.10 71.51 70.88 70.68 70.70
39.51 37.79 35.14 35.31 35.59 36.77 38.38 39.15 35.55 37.38 37.47 38.04 39.39 34.01 38.44 40.08 42.68 44.00 44.46 45.11 46.13 47.32 47.95 48.03 48.38 51.10 53.00 53.50 53.97 55.40 57.81 58.44 59.56 63.22 65.93 66.95 68.62 69.86 70.09 69.88 70.22 70.64 70.91 70.96 70.98 70.76 70.43 70.40 70.16
39.83 38.45 35.28 35.20 34.65 34.95 37.67 38.19 39.51 37.18 36.82 41.21 40.79 34.72 33.79 38.98 42.99 43.39 43.73 44.53 45.21 46.41 46.47 46.44 46.77 47.66 47.98 48.52 53.52 54.02 55.33 57.75 58.23 60.36 63.29 63.24 63.79 66.00 66.93 66.56 68.17 69.83 70.06 70.35 69.64 69.19 69.61 69.83 69.47
43.01 34.42 33.45 35.94 35.17 35.61 38.20 35.88 39.76 40.84 37.87 39.29 40.82 38.65 40.44 42.44 43.18 41.95 41.35 41.82 42.91 45.07 44.85 45.16 45.46 46.30 47.23 48.17 49.41 52.28 53.66 57.05 59.08 58.73 60.21 63.04 66.62 67.47 66.98 65.86 66.54 68.67 68.58 68.75 68.87 68.76 68.31 67.91 67.09
38.42 34.89 35.88 37.12 36.38 34.99 37.63 36.82 37.25 36.06 36.86 37.29 38.48 41.51 41.77 40.81 40.00 38.84 38.80 38.35 39.60 40.43 42.09 43.99 44.36 44.71 46.05 48.23 47.99 47.81 50.70 53.17 56.43 58.25 58.64 61.43 65.81 66.81 66.53 63.07 63.39 65.76 65.92 67.24 68.22 67.90 66.59 64.91 66.33
39.79 35.12 37.24 37.96 38.71 38.39 36.98 35.73 37.66 35.10 33.37 36.67 33.93 36.98 38.42 38.20 38.17 37.93 38.04 38.45 38.26 39.70 40.90 42.17 43.22 44.39 44.51 45.39 47.23 46.76 47.12 51.18 53.13 56.51 58.65 59.49 62.43 65.94 66.08 66.03 64.49 65.12 61.43 66.66 67.22 66.93 66.27 65.93 65.18
34.04 38.95 38.13 39.40 39.01 36.93 34.84 37.02 35.09 35.82 36.07 38.37 36.14 36.56 36.65 36.44 36.43 36.36 36.28 36.99 37.57 38.11 39.06 40.41 41.46 42.75 43.72 45.10 45.72 46.90 45.83 48.14 50.61 53.10 55.86 56.75 59.13 63.63 64.50 65.27 65.34 65.33 65.74 66.19 66.50 66.16 65.54 65.21 63.93
35.10 37.78 38.59 38.51 37.60 36.42 37.91 34.83 34.74 35.04 37.82 38.28 37.48 37.36 35.67 35.75 35.86 36.31 36.60 37.20 37.26 36.76 37.71 38.63 39.97 41.09 43.07 43.78 45.10 46.25 45.78 46.28 50.28 53.10 54.41 55.42 55.19 58.21 63.28 64.83 64.62 65.84 65.33 64.53 62.89 63.48 63.92 63.70 63.28
37.83 37.10 37.10 38.11 37.20 37.17 35.31 34.33 34.22 34.13 35.76 34.46 35.37 34.20 35.64 35.14 34.87 34.70 34.97 34.76 35.28 36.39 36.70 38.20 39.04 40.63 42.08 43.12 44.17 45.47 45.53 45.43 47.87 52.29 53.35 54.85 54.98 55.04 57.93 62.89 64.08 63.73 64.61 62.70 60.30 61.10 61.79 62.30 62.85
37.49 32.08 36.89 36.76 36.74 34.73 34.48 30.22 30.77 34.31 35.44 33.00 33.06 34.09 33.87 34.85 34.98 33.10 33.82 33.48 34.07 34.96 36.42 36.97 37.96 39.86 40.37 41.37 43.87 45.98 44.66 46.41 47.79 50.31 52.36 53.76 54.94 54.17 54.32 56.89 62.68 63.90 63.63 62.36 61.42 60.74 60.94 61.34 62.18
32.79 32.99 27.84 35.10 34.91 34.62 32.30 24.72 32.72 34.19 33.04 31.71 32.78 31.62 31.78 33.41 34.40 34.27 33.65 33.01 33.45 33.97 34.45 36.00 37.80 37.57 39.04 40.09 43.04 43.81 45.73 47.85 48.20 51.53 52.32 53.08 54.41 54.70 53.58 54.80 59.42 63.39 62.65 63.02 61.86 61.13 60.48 61.10 60.92
31.20 26.28 28.77 31.54 36.39 34.19 30.81 26.07 33.18 34.73 33.57 31.46 30.93 31.04 30.04 31.22 32.13 32.57 32.41 31.65 32.16 32.75 33.29 33.95 35.97 36.31 37.97 40.14 41.92 42.81 44.09 46.55 48.49 50.66 51.18 50.26 52.89 53.77 52.91 53.74 56.29 61.17 61.02 62.41 62.11 61.19 60.44 60.12 60.68
24.88 24.90 28.10 27.49 32.70 31.31 29.09 29.05 32.94 34.88 34.41 30.43 28.81 28.87 28.10 28.95 29.66 31.31 31.60 32.16 31.62 31.51 32.58 34.24 35.29 35.69 37.59 39.15 41.38 41.83 43.21 46.02 48.34 48.34 49.42 51.37 50.39 51.12 52.58 52.92 53.70 57.35 60.54 59.35 61.71 60.31 60.69 60.62 59.93
29.18 25.96 25.20 30.87 34.06 27.45 27.82 28.71 31.38 33.34 32.84 30.31 29.32 28.77 26.18 26.85 28.78 29.54 30.71 30.83 30.53 30.73 31.16 32.68 33.64 34.07 35.76 37.00 38.74 38.94 39.01 42.27 44.00 48.16 49.82 50.40 51.13 51.37 50.51 52.34 53.31 54.23 57.74 60.01 60.06 59.95 59.08 58.83 52.66
28.58 26.07 25.74 30.75 31.49 29.48 27.22 26.71 30.19 31.53 30.53 30.09 28.25 26.27 25.27 25.60 25.79 27.48 28.39 28.80 28.62 29.52 30.81 31.51 32.19 33.76 34.58 36.47 39.12 39.43 39.48 41.17 42.99 45.56 49.54 49.96 51.59 52.84 54.62 53.60 55.51 54.18 54.92 59.25 59.21 59.35 58.79 57.34 54.42
27.65 26.23 26.15 23.76 27.38 29.28 24.62 22.25 24.81 27.97 30.79 30.35 28.26 27.24 25.90 24.34 23.84 24.46 26.30 26.06 26.75 26.92 28.30 30.36 31.83 33.29 34.35 36.27 37.89 38.91 40.19 42.69 43.88 45.92 48.27 50.33 50.45 50.49 49.44 50.28 52.38 53.94 54.14 56.71 58.41 58.74 58.31 56.83 55.46
22.90 29.37 27.20 25.32 20.26 17.20 23.70 12.47 23.20 25.73 25.87 26.34 26.88 25.87 23.08 23.87 24.38 24.79 25.09 24.73 25.12 27.30 29.06 30.46 31.84 33.46 34.39 35.26 35.82 36.83 37.45 38.27 42.42 45.10 48.60 49.09 45.72 44.95 45.39 45.74 47.44 49.37 51.84 53.29 57.09 58.67 58.80 58.34 55.12
24.86 28.97 25.43 25.08 18.90 21.19 20.87 10.74 21.12 25.38 22.44 25.24 25.55 23.03 22.54 22.91 22.89 22.89 23.15 24.57 26.00 27.48 27.86 29.90 30.74 31.61 32.99 34.32 34.99 35.79 37.18 39.36 40.96 43.45 45.30 45.72 44.41 42.27 41.03 42.07 43.27 45.36 46.35 47.43 49.65 54.64 57.32 57.43 57.40
29.77 26.21 27.09 23.54 20.20 10.44 18.42 16.14 17.55 17.29 18.40 23.52 24.77 23.79 22.64 20.84 22.34 23.86 24.48 25.08 25.38 27.03 27.91 28.94 29.92 29.57 30.92 31.16 33.39 34.30 35.35 36.34 38.13 40.23 41.63 41.98 41.12 39.56 37.17 38.34 39.24 40.59 41.33 41.82 42.47 43.61 48.75 54.76 56.12
26.33 23.00 15.95 14.36 12.45 14.60 21.53 16.91 18.62 20.04 21.55 21.83 18.51 20.05 19.00 20.93 21.81 22.16 22.09 22.61 24.05 24.68 25.66 26.99 27.96 27.45 29.15 29.56 30.81 32.06 33.37 34.48 35.33 36.25 37.55 37.16 35.96 34.76 33.54 34.38 35.25 36.21 36.82 37.22 38.36 37.17 36.77 37.14 40.88
22.75 20.23 14.15 5.58 9.85 12.29 21.82 11.00 20.04 20.06 19.27 18.61 20.52 15.94 21.02 21.48 21.56 21.27 22.12 22.86 22.87 23.67 24.54 25.18 26.60 26.21 27.40 28.21 29.11 30.11 30.96 31.74 32.37 32.82 33.52 33.00 31.85 31.18 31.25 31.38 32.08 32.18 32.94 33.82 33.62 32.56 31.91 32.64 32.39
22.27 20.15 21.70 11.28 11.01 10.55 16.23 22.11 20.23 21.40 18.71 19.15 16.78 21.21 19.40 19.77 20.65 20.37 21.31 21.53 20.99 22.26 23.69 24.78 25.82 25.41 26.19 26.79 27.52 27.41 28.03 28.07 28.26 29.79 30.07 29.75 30.26 30.32 28.79 28.25 27.92 28.30 28.60 28.90 29.44 27.71 27.74 28.42 28.86
23.10 24.99 15.89 16.88 4.85 4.17 16.34 17.96 19.54 15.47 16.13 17.83 14.62 16.00 16.96 19.04 19.85 19.65 18.70 19.93 21.23 22.38 23.64 25.30 25.37 24.41 25.50 26.10 26.35 26.00 25.34 25.79 26.25 26.35 26.50 26.77 27.30 27.87 27.56 26.99 26.62 26.71 26.88 27.26 27.37 26.77 26.70 26.49 26.82
19.06 18.57 20.29 18.42 15.65 7.18 8.38 14.66 15.16 13.89 12.45 11.98 13.17 17.68 14.18 15.44 18.14 18.22 18.03 19.27 19.87 21.48 22.85 23.35 23.43 23.44 24.46 25.13 25.11 24.24 23.96 23.89 24.10 24.17 24.58 24.93 25.28 25.68 25.96 26.00 26.03 26.19 26.24 26.45 25.73 25.64 25.83 25.14 24.92
22.68 18.45 21.02 12.76 10.10 12.24 10.66 13.31 16.64 12.55 10.81 12.07 15.69 18.19 16.52 17.71 14.82 14.65 15.43 14.48 15.51 19.97 21.20 21.35 22.08 22.79 23.82 24.73 24.28 23.56 23.54 23.09 22.29 22.37 22.79 24.02 23.85 24.38 24.18 24.29 23.76 23.49 23.98 24.62 24.32 23.80 23.82 23.64 23.04
MSLP
1011.77 1010.62 1010.34 1009.83 1010.17 1009.06 1007.97 1007.09 1006.83 1007.69 1008.27 1009.06 1009.40 1009.63 1009.83 1009.90 1010.19 1012.27 1013.36 1013.26 1012.93 1012.57 1012.46 1012.91 1012.70 1012.06 1011.64 1011.16 1010.71 1010.33 1010.48 1010.47 1010.71 1010.93 1011.08 1011.24 1011.47 1011.82 1011.90 1012.37 1012.32 1012.51 1012.89 1013.04 1013.37 1013.64 1014.02 1014.33 1014.64
1012.09 1011.08 1010.60 1009.70 1009.79 1008.73 1007.84 1007.22 1007.72 1008.50 1009.19 1009.53 1009.71 1009.95 1010.31 1010.70 1011.19 1012.25 1012.73 1013.35 1013.04 1012.73 1012.64 1013.16 1013.07 1012.57 1012.10 1011.81 1011.20 1010.75 1010.61 1010.60 1010.59 1010.78 1011.00 1011.13 1011.37 1011.70 1011.87 1012.19 1012.40 1012.59 1012.94 1013.12 1013.43 1013.66 1013.98 1014.38 1014.73
1011.93 1011.19 1010.80 1009.91 1009.30 1008.55 1008.11 1008.31 1008.63 1009.27 1009.62 1010.08 1010.30 1010.52 1010.87 1011.98 1012.77 1013.50 1014.03 1013.72 1013.21 1013.07 1013.00 1013.23 1013.31 1013.01 1012.67 1012.25 1011.86 1011.40 1010.96 1010.77 1010.78 1010.80 1010.84 1010.99 1011.26 1011.55 1011.70 1012.01 1012.20 1012.61 1012.84 1013.09 1013.35 1013.72 1014.07 1014.42 1014.81
1011.65 1011.20 1010.98 1010.37 1009.32 1008.33 1008.36 1008.95 1009.30 1009.76 1009.82 1010.40 1010.98 1011.44 1012.07 1013.10 1013.54 1014.46 1014.36 1013.95 1013.66 1013.41 1013.29 1013.40 1013.46 1013.48 1013.20 1012.83 1012.46 1012.12 1011.58 1011.19 1010.91 1010.87 1010.91 1010.99 1011.14 1011.32 1011.51 1011.86 1011.97 1012.30 1012.74 1012.97 1013.27 1013.62 1014.03 1014.35 1014.77
1011.77 1011.09 1010.76 1010.03 1009.04 1008.48 1008.89 1009.48 1010.28 1010.61 1010.70 1010.85 1011.37 1012.14 1012.94 1014.14 1014.59 1014.77 1014.57 1014.20 1013.93 1013.76 1013.66 1013.70 1013.80 1013.72 1013.62 1013.28 1012.94 1012.64 1012.34 1011.87 1011.38 1010.89 1010.83 1010.86 1010.98 1011.22 1011.37 1011.63 1011.89 1012.14 1012.52 1012.90 1013.17 1013.48 1013.99 1014.34 1014.67
1011.52 1011.07 1010.46 1009.62 1008.78 1008.83 1009.59 1010.34 1010.98 1011.16 1011.27 1011.49 1012.14 1012.93 1013.79 1014.63 1014.92 1015.08 1014.82 1014.40 1014.08 1013.96 1013.97 1014.08 1014.17 1014.07 1013.96 1013.84 1013.47 1012.97 1012.58 1012.46 1011.97 1011.43 1010.98 1010.81 1010.85 1010.94 1011.12 1011.28 1011.63 1011.87 1012.27 1012.71 1013.06 1013.35 1013.85 1014.20 1014.59
1011.60 1010.93 1010.10 1009.42 1009.20 1009.44 1010.41 1011.33 1011.60 1011.93 1012.14 1012.38 1013.00 1013.50 1013.77 1014.76 1015.19 1015.19 1015.03 1014.71 1014.50 1014.20 1014.32 1014.50 1014.57 1014.34 1014.19 1014.06 1013.86 1013.47 1012.90 1012.55 1012.29 1011.84 1011.34 1011.03 1010.75 1010.77 1010.86 1010.91 1011.24 1011.53 1012.03 1012.41 1012.77 1013.07 1013.60 1014.05 1014.47
1011.90 1011.11 1010.20 1009.70 1009.76 1010.61 1011.50 1011.90 1012.37 1012.72 1012.68 1012.91 1013.25 1013.54 1013.86 1014.87 1015.29 1015.27 1015.27 1015.20 1014.97 1014.96 1015.00 1015.01 1014.87 1014.72 1014.52 1014.24 1013.93 1013.72 1013.36 1012.67 1012.23 1011.94 1011.53 1011.23 1010.92 1010.62 1010.63 1010.78 1011.02 1011.14 1011.63 1012.11 1012.40 1012.70 1013.32 1013.83 1014.25
1012.31 1011.84 1010.74 1010.25 1010.49 1011.18 1012.03 1012.38 1012.39 1012.61 1013.18 1013.33 1013.42 1013.56 1014.10 1014.80 1015.32 1015.32 1015.43 1015.65 1015.70 1015.71 1015.68 1015.45 1015.27 1015.08 1014.84 1014.42 1013.93 1013.80 1013.47 1012.95 1012.33 1011.95 1011.60 1011.19 1010.69 1010.35 1010.33 1010.46 1010.72 1010.96 1011.19 1011.57 1012.13 1012.49 1012.95 1013.56 1014.05
1012.51 1011.97 1011.40 1011.41 1011.60 1011.98 1012.32 1012.77 1012.96 1013.23 1013.25 1013.36 1013.31 1013.43 1014.41 1015.25 1015.72 1016.08 1016.32 1016.41 1016.34 1016.19 1016.12 1015.77 1015.54 1015.41 1015.10 1014.69 1014.30 1014.01 1013.68 1013.18 1012.56 1011.99 1011.64 1011.26 1010.73 1010.37 1010.13 1010.23 1010.35 1010.64 1010.93 1011.33 1011.68 1012.01 1012.77 1013.41 1013.89
1012.60 1012.19 1012.11 1012.01 1012.50 1012.97 1013.23 1013.41 1013.51 1013.52 1013.34 1013.76 1014.32 1014.76 1015.20 1015.61 1016.01 1016.38 1016.61 1016.84 1016.77 1016.60 1016.30 1016.19 1015.91 1015.60 1015.45 1015.10 1014.56 1014.11 1013.83 1013.40 1012.80 1012.06 1011.58 1011.24 1010.85 1010.26 1010.04 1010.04 1010.23 1010.51 1010.75 1011.17 1011.60 1011.61 1012.30 1013.00 1013.35
1013.52 1012.58 1012.72 1012.82 1013.18 1013.72 1013.83 1013.81 1013.83 1013.91 1013.79 1014.09 1014.96 1015.52 1015.96 1016.23 1016.43 1016.72 1016.80 1016.91 1016.97 1016.78 1016.70 1016.56 1016.34 1015.93 1015.56 1015.26 1014.84 1014.23 1013.81 1013.44 1013.02 1012.27 1011.47 1011.21 1010.89 1010.53 1010.07 1009.98 1009.86 1010.22 1010.38 1010.82 1011.43 1011.20 1011.33 1012.81 1013.21
1013.72 1013.19 1013.26 1013.29 1013.56 1013.91 1014.03 1014.10 1014.28 1013.81 1013.97 1014.25 1015.09 1015.68 1016.16 1016.44 1016.57 1016.88 1017.11 1017.07 1017.09 1017.12 1016.95 1016.88 1016.59 1016.21 1015.64 1015.23 1014.76 1014.21 1013.78 1013.32 1012.87 1012.22 1011.60 1011.09 1010.95 1010.44 1010.12 1009.91 1009.64 1009.94 1010.33 1010.80 1011.68 1011.37 1012.08 1012.62 1013.21
1014.14 1013.98 1013.65 1013.47 1013.72 1013.96 1014.19 1014.21 1014.40 1013.66 1014.04 1014.86 1015.47 1015.99 1016.29 1016.59 1016.94 1017.12 1017.28 1017.58 1017.60 1017.58 1017.22 1017.00 1016.60 1016.19 1015.69 1015.22 1014.85 1014.15 1013.62 1013.20 1012.58 1011.94 1011.37 1011.09 1010.74 1010.44 1010.11 1010.02 1009.95 1010.14 1010.24 1010.71 1011.48 1011.49 1012.84 1013.25 1013.34
1014.64 1014.35 1013.37 1013.29 1013.75 1014.31 1014.80 1014.12 1013.83 1013.55 1014.06 1015.06 1015.67 1015.90 1016.14 1016.52 1017.00 1017.41 1017.62 1017.90 1017.97 1017.85 1017.25 1017.01 1016.62 1016.08 1015.89 1015.47 1014.74 1014.02 1013.29 1012.71 1012.01 1011.52 1011.14 1010.84 1010.56 1010.47 1010.10 1009.89 1009.78 1009.73 1010.35 1010.60 1011.40 1012.13 1012.01 1013.05 1013.28
1014.85 1014.29 1013.71 1013.08 1013.89 1014.59 1015.29 1014.09 1013.91 1013.92 1014.19 1014.87 1015.36 1015.77 1016.05 1016.61 1016.95 1017.39 1017.75 1018.15 1018.01 1017.93 1017.37 1016.95 1016.84 1016.46 1016.12 1015.54 1014.71 1014.07 1013.41 1012.48 1011.64 1010.89 1010.80 1010.30 1010.39 1010.29 1010.26 1009.82 1009.95 1009.45 1009.83 1010.38 1011.43 1011.23 1012.24 1013.19 1013.93
1014.61 1014.39 1013.69 1013.33 1013.43 1014.23 1014.95 1013.85 1013.61 1013.68 1013.82 1014.14 1014.82 1015.54 1015.98 1016.62 1017.00 1017.62 1018.06 1018.32 1018.16 1018.03 1017.43 1016.91 1016.74 1016.46 1016.09 1015.47 1014.62 1014.04 1013.41 1012.48 1011.29 1010.41 1010.16 1010.08 1010.27 1009.82 1010.02 1009.93 1009.92 1009.77 1009.92 1010.27 1010.66 1010.96 1012.08 1012.95 1013.32
1014.83 1014.81 1014.22 1014.06 1013.76 1014.29 1014.38 1013.07 1013.07 1012.91 1012.95 1013.35 1014.30 1015.18 1015.95 1016.71 1017.35 1017.85 1018.13 1018.13 1018.23 1017.84 1017.44 1017.02 1016.62 1016.42 1016.15 1015.52 1014.58 1013.86 1013.09 1012.10 1010.75 1010.21 1009.73 1009.67 1009.50 1009.38 1009.89 1009.97 1009.48 1009.97 1009.93 1010.35 1010.50 1010.97 1011.75 1012.17 1012.81
1015.41 1015.49 1015.13 1014.45 1014.03 1014.46 1014.13 1013.14 1012.81 1012.67 1012.52 1013.18 1014.07 1015.17 1016.08 1016.95 1017.54 1017.98 1018.14 1018.06 1018.15 1017.86 1017.43 1017.02 1016.58 1016.55 1016.31 1015.51 1014.58 1013.77 1013.00 1012.00 1011.07 1010.04 1009.18 1009.13 1009.23 1009.05 1009.56 1009.35 1009.76 1009.68 1010.56 1010.33 1010.50 1011.02 1011.48 1012.26 1013.08
1015.82 1015.89 1015.20 1014.38 1014.66 1015.20 1014.38 1013.07 1012.60 1012.51 1012.54 1013.13 1014.22 1015.30 1016.34 1017.27 1017.77 1017.96 1018.03 1017.92 1018.12 1017.87 1017.43 1017.15 1017.02 1016.81 1016.41 1015.59 1014.59 1013.94 1013.12 1011.97 1011.42 1010.43 1009.15 1008.73 1008.75 1008.56 1009.05 1009.27 1009.45 1009.95 1010.12 1010.27 1010.22 1010.76 1011.06 1011.45 1012.26
1016.02 1016.17 1015.98 1016.20 1015.86 1015.44 1015.34 1013.29 1012.78 1013.15 1013.06 1013.96 1015.04 1015.84 1016.73 1017.50 1017.79 1017.90 1017.89 1018.02 1018.18 1018.04 1017.69 1017.53 1017.31 1016.86 1016.28 1015.66 1014.67 1013.75 1012.85 1011.57 1010.88 1010.21 1009.14 1008.87 1008.82 1008.92 1008.98 1009.85 1010.25 1010.63 1011.07 1010.50 1009.94 1010.26 1010.25 1010.99 1011.60
1016.63 1016.35 1016.72 1017.08 1017.69 1017.32 1016.84 1015.67 1013.53 1013.62 1014.11 1014.82 1015.50 1016.17 1016.85 1017.61 1017.89 1018.13 1018.13 1018.29 1018.45 1018.22 1017.91 1017.71 1017.35 1016.88 1016.28 1015.65 1014.82 1013.81 1012.77 1011.87 1011.13 1010.48 1009.75 1009.53 1009.53 1009.99 1010.27 1010.81 1010.64 1010.74 1011.11 1010.59 1009.74 1009.62 1009.73 1010.24 1011.07
1016.58 1016.79 1017.27 1017.65 1018.36 1018.40 1017.41 1017.75 1014.20 1014.23 1014.79 1014.94 1015.37 1016.09 1016.99 1017.74 1018.30 1018.43 1018.44 1018.46 1018.37 1018.12 1017.87 1017.67 1017.33 1016.84 1016.20 1015.58 1014.86 1013.90 1012.80 1012.01 1011.34 1010.64 1009.86 1010.12 1010.18 1011.04 1011.35 1010.93 1011.04 1010.83 1011.30 1010.52 1010.08 1010.05 1009.65 1009.91 1010.27
1017.21 1017.28 1017.11 1018.00 1018.58 1018.56 1017.31 1017.67 1015.29 1015.66 1015.72 1015.62 1015.85 1016.74 1017.53 1018.35 1018.53 1018.57 1018.58 1018.69 1018.57 1018.17 1017.87 1017.56 1017.14 1016.71 1016.21 1015.56 1014.79 1014.01 1013.18 1012.37 1011.76 1011.03 1010.68 1010.82 1011.22 1011.63 1011.52 1011.55 1011.08 1011.11 1011.01 1010.70 1010.60 1010.95 1010.40 1009.94 1010.08
1017.77 1017.99 1018.28 1018.89 1018.86 1017.82 1017.45 1017.87 1015.70 1016.00 1016.26 1016.76 1017.15 1017.57 1018.28 1018.68 1018.58 1018.82 1019.06 1019.09 1018.85 1018.45 1018.17 1017.72 1017.30 1016.80 1016.26 1015.61 1014.84 1014.22 1013.52 1012.72 1012.30 1012.12 1011.90 1012.03 1012.17 1012.52 1012.62 1012.49 1011.67 1011.74 1011.74 1011.42 1011.36 1011.39 1011.60 1011.06 1011.32
1018.43 1018.80 1019.64 1020.13 1019.44 1018.68 1017.67 1017.16 1015.38 1016.09 1016.84 1017.40 1017.84 1018.21 1018.57 1018.64 1019.05 1019.39 1019.58 1019.56 1019.26 1018.84 1018.45 1017.90 1017.34 1016.83 1016.34 1015.72 1015.09 1014.58 1013.95 1013.04 1012.85 1012.94 1012.82 1013.03 1013.40 1013.38 1013.22 1012.74 1012.48 1012.51 1012.25 1011.92 1012.25 1012.03 1012.73 1012.18 1012.61
1019.07 1019.40 1019.91 1020.42 1020.15 1020.05 1017.18 1015.79 1016.02 1016.69 1017.40 1017.94 1018.28 1018.80 1019.09 1019.43 1019.70 1019.92 1019.97 1019.90 1019.55 1019.16 1018.66 1018.13 1017.53 1017.11 1016.53 1015.93 1015.42 1015.01 1014.35 1013.62 1013.70 1013.70 1013.73 1013.83 1013.93 1013.72 1013.77 1013.23 1013.02 1013.16 1012.98 1012.75 1012.75 1012.77 1014.16 1013.46 1014.07
1019.49 1019.85 1020.40 1021.05 1020.90 1019.84 1017.17 1016.39 1016.32 1017.32 1018.04 1018.47 1019.08 1019.60 1019.73 1020.01 1020.22 1020.39 1020.27 1020.09 1019.82 1019.36 1018.84 1018.19 1017.81 1017.39 1016.81 1016.27 1015.83 1015.36 1014.63 1014.42 1014.33 1014.46 1014.37 1014.34 1014.28 1014.46 1014.24 1013.64 1013.55 1013.67 1013.77 1013.71 1013.96 1014.07 1014.80 1014.69 1015.23
1020.24 1020.27 1020.63 1021.12 1021.14 1021.07 1019.32 1016.65 1016.18 1017.44 1018.45 1019.26 1019.86 1020.15 1020.16 1020.32 1020.55 1020.46 1020.21 1020.25 1019.99 1019.47 1018.93 1018.44 1017.95 1017.51 1017.04 1016.59 1016.11 1015.62 1015.30 1015.15 1014.90 1014.98 1014.84 1014.79 1015.07 1014.80 1014.22 1014.07 1014.38 1014.47 1014.49 1014.71 1014.49 1015.06 1015.86 1015.54 1016.26
1020.00 1020.21 1020.36 1021.39 1021.64 1021.38 1020.92 1017.77 1016.31 1017.59 1018.88 1019.46 1019.98 1020.16 1020.17 1020.28 1020.58 1020.44 1020.48 1020.53 1020.23 1019.65 1019.15 1018.73 1018.22 1017.77 1017.33 1016.83 1016.35 1015.92 1015.70 1015.41 1015.47 1015.34 1015.42 1015.62 1015.47 1015.09 1014.90 1014.97 1015.14 1015.29 1015.39 1015.66 1015.20 1016.01 1016.62 1016.46 1016.68
Wind_Speed
17 7 4 3 3 3 6 1 12 7 6 5 3 4 6 6 5 3 6 10 11 10 10 15 24 24 24 24 23 9 10 11 12 12 11 11 12 12 11 10 10 11 14 16 16 16 14 12 10
9 12 3 4 3 5 3 7 8 12 8 5 5 4 5 2 7 6 8 11 10 10 10 13 20 23 24 23 23 21 10 11 11 12 12 12 12 13 13 13 10 12 14 15 15 16 14 12 12
9 7 3 2 4 4 3 8 9 8 7 5 4 5 4 4 10 4 7 11 10 8 10 12 20 23 23 23 23 22 20 12 12 13 13 13 14 14 13 13 13 12 14 15 16 15 14 13 12
4 2 3 2 8 5 4 7 7 4 0 6 7 6 7 8 5 8 11 9 9 9 8 9 19 21 22 22 22 22 21 19 14 13 14 15 15 15 15 15 14 15 14 15 16 15 14 14 13
3 3 3 5 10 3 6 7 5 3 5 3 7 3 4 8 10 9 10 10 10 10 9 10 20 21 21 21 21 20 19 21 19 12 13 15 15 15 15 15 15 15 15 15 15 15 15 14 13
3 2 4 6 4 5 4 9 6 5 5 4 3 6 3 10 12 10 9 10 9 8 9 10 15 18 20 21 21 20 19 17 18 16 12 13 15 15 15 16 17 17 16 15 15 16 16 15 13
3 3 6 6 5 4 5 3 2 6 6 2 4 2 3 15 9 8 10 9 9 8 9 8 9 11 15 19 19 19 19 16 15 17 13 11 6 13 15 16 19 18 17 17 17 18 17 16 14
4 3 4 5 3 4 5 3 5 3 4 4 4 4 2 7 7 6 8 10 10 11 10 11 8 8 9 9 13 16 19 17 14 14 14 10 9 5 5 9 12 19 21 19 19 19 18 16 14
2 3 5 4 4 4 7 2 3 4 5 6 6 5 3 10 10 11 9 8 9 10 11 11 9 10 10 10 9 10 15 17 11 10 11 9 4 5 7 8 10 15 19 22 21 18 16 14 12
2 3 6 4 6 4 8 6 6 4 8 10 9 6 11 10 7 7 7 6 7 10 10 10 10 11 10 10 9 6 8 7 8 5 7 6 6 5 5 4 9 11 12 14 20 22 16 12 6
1 3 4 4 6 7 6 8 7 8 7 8 5 9 12 11 9 8 7 7 7 8 7 10 11 11 10 9 8 4 3 5 6 8 6 5 6 4 3 3 3 3 6 7 9 12 9 9 7
4 5 3 3 1 2 5 8 7 10 12 5 4 5 7 9 7 7 8 8 8 7 9 11 11 12 11 7 7 8 4 5 4 8 6 4 3 5 2 3 4 4 5 7 7 7 7 9 5
5 4 2 5 5 7 7 9 10 13 9 2 4 5 7 7 8 7 8 8 9 10 10 10 11 12 11 11 7 7 7 4 7 7 7 4 4 4 3 4 2 3 5 7 5 5 3 4 4
6 8 11 5 5 6 8 10 6 4 8 4 3 5 6 6 7 8 8 9 10 12 11 10 11 12 11 11 11 9 7 9 8 6 5 6 4 4 4 3 4 4 4 8 9 6 7 3 1
5 7 7 10 4 2 6 12 12 4 9 2 5 8 3 4 5 6 7 8 10 10 11 11 12 12 13 14 11 11 6 9 8 5 7 6 5 5 5 3 2 4 4 7 7 7 6 5 6
3 4 5 7 8 5 6 6 7 6 7 6 7 7 3 5 5 6 7 9 10 12 12 12 11 12 15 14 11 10 10 10 9 6 5 5 5 5 4 3 4 2 4 7 6 7 7 7 6
5 5 7 3 7 2 6 9 9 8 9 10 6 6 3 5 6 7 7 7 9 11 12 13 11 13 14 14 12 12 13 11 9 7 5 7 7 3 3 3 3 4 3 3 6 8 9 8 6
3 5 4 8 3 9 10 21 12 8 7 5 4 5 4 5 6 8 8 8 8 9 11 12 11 12 13 11 9 10 9 10 8 6 5 7 5 5 4 4 2 4 3 3 4 8 7 7 6
4 5 11 13 3 3 10 16 18 12 9 6 6 5 3 6 6 6 8 7 8 9 10 12 13 14 10 8 8 9 7 8 8 7 7 7 7 8 5 2 2 1 5 4 6 6 10 6 6
6 9 12 10 3 10 12 21 21 11 5 3 3 5 5 7 7 6 7 6 7 11 12 12 13 13 11 8 8 7 6 6 8 9 8 5 6 3 2 3 3 4 5 6 6 8 6 3 10
7 8 7 6 10 13 9 9 5 3 6 8 4 3 3 6 8 8 8 7 7 9 10 12 13 14 11 12 8 9 8 7 6 6 5 0 7 7 9 7 4 3 4 5 5 8 11 6 8
3 5 6 9 6 5 5 9 4 6 5 5 6 6 3 6 7 7 8 7 8 10 9 11 13 12 10 10 8 11 7 6 6 7 4 5 10 9 7 5 5 2 4 6 5 5 5 7 8
9 7 8 8 3 7 2 0 6 5 4 7 9 2 4 6 7 8 6 5 6 8 7 9 11 11 11 9 10 7 8 5 5 6 5 6 7 8 6 5 5 4 4 5 5 9 7 6 6
7 7 5 2 2 2 5 2 6 3 4 3 2 6 7 8 9 7 6 7 8 8 10 10 11 12 11 11 9 9 9 5 5 6 5 5 5 4 7 6 4 4 4 3 3 5 5 2 6
3 2 4 5 2 5 5 4 10 7 4 3 5 8 6 9 6 7 8 9 10 11 11 11 11 11 10 10 9 9 8 4 4 6 4 5 4 3 5 5 6 4 4 4 4 5 6 6 4
3 2 4 5 4 5 6 7 8 4 3 4 8 5 8 6 7 7 9 9 10 12 12 11 11 11 11 10 9 7 7 4 5 6 5 4 3 3 5 5 6 6 6 6 6 7 6 7 8
2 1 2 1 2 1 5 5 2 5 7 7 6 6 7 7 7 7 7 8 9 10 11 12 10 10 10 9 7 6 6 8 6 7 6 4 5 4 5 6 7 7 7 8 9 9 7 10 8
2 4 2 1 4 7 6 6 6 6 9 6 7 6 5 6 7 6 5 8 8 10 10 10 9 8 7 7 5 4 7 8 6 6 7 6 6 5 5 7 9 8 9 9 9 10 9 12 8
2 2 2 1 1 3 5 8 5 7 6 6 5 5 3 3 4 3 4 5 6 7 8 8 9 8 6 4 4 6 7 7 7 7 7 8 7 6 9 9 9 9 10 10 13 14 11 15 12
3 1 4 5 4 4 2 12 4 5 5 4 5 4 3 2 1 3 4 4 5 6 6 7 7 7 7 6 5 7 8 9 8 9 9 8 9 10 10 11 12 12 12 12 14 14 12 14 14
Wind_Direction
317 295 285 284 248 225 265 273 89 135 149 75 57 304 360 309 341 51 76 18 355 2 32 29 9 8 6 4 360 272 223 201 201 205 199 197 193 194 185 187 161 154 163 158 157 154 148 141 137
310 299 265 264 255 220 222 36 80 46 50 26 266 246 257 66 26 78 18 358 355 0 21 39 14 10 9 6 2 2 264 229 213 208 204 198 199 196 195 187 175 172 173 164 161 155 147 143 146
268 280 281 226 226 241 20 38 70 90 92 28 331 36 321 37 54 58 8 348 346 6 19 38 18 10 8 6 5 358 357 272 239 222 216 207 202 199 195 194 181 180 176 174 166 161 158 152 153
316 236 276 280 251 274 60 58 61 4 234 125 96 294 80 41 62 29 358 347 350 354 29 22 17 11 4 6 3 0 358 354 278 238 228 218 211 205 203 198 188 182 184 180 176 165 163 158 161
239 265 259 220 247 188 85 75 68 313 307 2 68 255 65 55 43 23 357 352 356 350 19 14 9 8 4 1 360 358 355 354 353 290 240 235 223 215 208 203 196 188 193 189 182 168 165 166 168
252 282 247 233 166 99 90 54 357 293 291 1 17 3 49 69 32 4 348 346 350 353 17 17 2 1 358 358 352 353 353 346 342 343 338 256 240 224 212 206 204 193 190 192 190 170 166 166 169
267 191 255 321 290 110 85 60 298 13 332 10 50 304 109 56 26 358 352 348 342 7 12 12 353 353 353 351 346 344 343 345 347 339 340 338 306 240 227 219 214 199 194 190 182 175 166 165 165
310 328 266 215 9 54 71 2 90 274 304 62 103 225 313 65 16 10 6 352 354 3 7 0 340 351 344 341 331 347 335 330 337 337 321 319 299 266 248 229 230 214 195 196 190 182 168 169 169
282 272 261 324 47 81 145 208 169 119 224 243 246 250 345 48 19 3 2 356 352 354 355 339 351 349 339 331 329 346 331 317 303 319 325 298 279 240 223 212 216 224 207 199 191 187 175 168 167
262 273 17 11 16 336 347 328 324 314 291 291 282 292 31 27 5 2 343 345 342 337 339 344 347 339 337 328 332 330 316 317 310 286 295 316 303 303 273 244 216 210 210 217 198 186 170 161 162
227 256 45 39 26 2 317 301 303 292 267 289 18 353 356 352 350 344 343 341 342 328 328 336 340 334 335 324 320 311 314 304 305 298 269 289 289 283 253 235 187 210 203 194 190 190 164 171 160
281 254 332 6 67 272 286 307 279 272 276 67 42 10 341 325 339 339 328 338 318 333 341 336 332 327 324 318 313 310 299 297 290 295 286 278 287 281 291 255 193 189 169 182 176 190 160 171 169
230 311 329 263 258 254 275 280 273 275 279 122 80 350 314 317 324 338 337 330 346 336 333 325 326 322 317 312 303 301 302 287 285 281 294 273 277 287 276 290 228 144 153 123 93 95 62 147 198
2 307 281 274 259 268 277 281 321 280 103 97 199 250 264 318 330 328 343 336 341 331 325 321 319 313 311 313 309 295 291 292 277 261 265 290 275 282 297 271 234 194 169 143 125 130 159 169 244
298 300 267 217 198 283 17 273 216 209 94 188 256 241 294 326 331 335 334 339 335 322 322 321 320 321 322 313 311 312 281 282 269 243 252 264 265 278 277 303 237 165 170 135 141 171 141 172 185
255 236 294 148 164 138 88 260 91 125 148 222 257 295 300 315 328 341 3 338 329 321 325 322 320 320 310 302 302 303 300 291 279 242 231 233 244 254 271 275 304 232 162 161 169 146 161 174 209
207 261 304 304 180 146 176 275 285 174 203 215 223 263 279 303 350 360 347 325 329 322 320 318 319 309 303 301 293 293 288 282 273 243 216 219 226 241 250 227 275 311 216 193 186 156 174 185 181
329 308 304 295 177 206 239 266 279 264 282 254 184 280 291 337 348 344 328 329 325 322 324 320 313 312 302 301 293 290 289 292 262 248 229 203 216 210 245 240 147 285 310 218 181 175 178 180 134
326 282 269 279 294 305 264 279 285 278 246 244 172 231 356 348 337 337 324 323 324 327 327 324 321 308 305 300 297 293 293 304 306 304 234 201 216 179 211 279 204 113 276 215 183 182 180 149 130
285 284 278 280 60 317 281 287 282 268 256 202 87 57 9 327 324 322 320 329 334 326 331 327 317 310 301 299 293 283 288 280 291 291 270 235 199 131 86 138 26 294 295 255 183 185 183 141 173
259 251 289 299 328 270 325 280 136 73 69 71 92 229 13 333 315 323 323 331 336 329 326 321 310 304 304 297 303 283 273 273 280 272 279 205 64 46 50 12 30 350 306 259 206 205 186 189 199
274 30 332 313 2 296 78 287 255 140 156 177 212 216 5 329 331 315 320 324 328 322 327 320 310 303 298 309 296 287 278 280 302 314 306 68 62 38 40 357 347 339 302 285 297 207 201 185 189
234 352 289 276 232 310 161 40 255 120 202 231 202 125 352 346 321 307 307 324 318 321 317 316 315 312 311 308 299 294 281 289 310 305 337 63 60 39 18 8 335 341 299 333 349 307 201 196 199
310 305 260 92 210 266 182 150 267 173 218 292 272 345 344 332 298 308 339 343 331 337 341 333 322 324 322 317 309 303 295 310 327 347 354 22 41 33 15 349 10 357 343 0 2 336 357 234 194
266 303 321 328 267 236 159 250 256 192 212 263 295 294 311 290 298 343 353 342 338 342 343 335 333 326 326 322 320 317 307 335 2 5 13 14 16 7 3 351 25 19 11 26 54 64 21 34 30
44 106 145 272 296 301 186 239 261 189 216 246 253 248 278 312 8 2 354 348 348 342 336 332 335 331 332 327 326 330 329 15 29 25 26 43 30 12 5 32 46 37 44 50 63 65 37 57 63
190 200 79 323 85 347 230 257 191 193 244 245 281 310 326 7 2 10 2 347 340 337 331 327 337 336 332 335 334 339 353 38 32 35 42 47 28 42 35 53 60 52 54 60 64 67 61 63 58
310 155 87 153 310 297 278 280 257 246 256 285 316 328 342 7 7 9 346 340 345 332 329 329 347 337 333 337 342 357 29 40 44 49 51 53 43 43 62 66 64 65 66 69 76 76 66 73 59
148 196 208 90 154 232 306 266 213 208 232 279 302 329 17 356 31 333 321 338 329 326 330 345 348 339 344 348 11 37 44 46 52 56 52 53 57 49 62 64 68 70 76 78 84 79 82 81 74
337 301 160 134 256 242 189 272 195 206 227 244 283 345 324 58 213 292 334 328 325 330 347 346 349 352 359 5 36 49 52 51 54 54 53 55 62 58 63 70 71 67 66 73 73 79 72 79 66